CW3556 Weather Reports


Display with metric or nautical units.
time (UTC)temp
F
wind
direction
speed
MPH
gust
MPH
rain 1hr
in
rain 24hr
in
rain mn
in
humidity
%
barometer
mb
20260505052503 72 231 10.0 20.0 0.00 0.00 0.00 60 1002.5
20260505052002 72 229 9.0 17.0 0.00 0.00 0.00 60 1002.5
20260505051524 72 227 9.0 18.0 0.00 0.00 0.00 60 1002.3
20260505051024 72 222 8.0 19.0 0.00 0.00 0.00 60 1002.1
20260505050503 72 226 9.0 21.0 0.00 0.00 0.00 60 1002.0
20260505041503 71 208 5.0 14.0 0.00 0.00 0.00 61 1002.1
20260505041003 71 209 5.0 14.0 0.00 0.00 0.00 61 1001.9
20260505040503 71 204 6.0 13.0 0.00 0.00 0.00 61 1001.9
20260505040003 71 202 5.0 13.0 0.00 0.00 0.00 61 1001.9
20260505035503 71 204 4.0 10.0 0.00 0.00 0.00 61 1002.0
20260505035003 72 204 5.0 10.0 0.00 0.00 0.00 61 1002.2
20260505034503 72 208 5.0 9.0 0.00 0.00 0.00 61 1002.2
20260505034003 72 214 4.0 10.0 0.00 0.00 0.00 61 1002.3
20260505033503 72 214 4.0 12.0 0.00 0.00 0.00 61 1002.4
20260505033003 72 211 4.0 12.0 0.00 0.00 0.00 61 1002.4
20260505032503 72 214 3.0 9.0 0.00 0.00 0.00 61 1002.5
20260505032003 72 222 3.0 7.0 0.00 0.00 0.00 60 1002.5
20260505031503 72 213 4.0 8.0 0.00 0.00 0.00 60 1002.5
20260505031003 72 211 4.0 8.0 0.00 0.00 0.00 60 1002.4
20260505030503 72 209 5.0 8.0 0.00 0.00 0.00 60 1002.3
20260505030024 72 206 5.0 9.0 0.00 0.00 0.00 60 1002.3
20260505025503 72 205 5.0 9.0 0.00 0.00 0.00 60 1002.3
20260505025003 73 204 3.0 8.0 0.00 0.00 0.00 60 1002.3
20260505024524 73 209 3.0 7.0 0.00 0.00 0.00 60 1002.2
20260505024003 73 211 3.0 6.0 0.00 0.00 0.00 60 1002.1
20260505023503 73 209 2.0 7.0 0.00 0.00 0.00 59 1002.1
20260505023003 73 208 1.0 7.0 0.00 0.00 0.00 59 1002.0
20260505022503 73 210 2.0 5.0 0.00 0.00 0.00 59 1002.0
20260505022003 73 210 2.0 6.0 0.00 0.00 0.00 58 1001.9
20260505021503 74 208 2.0 6.0 0.00 0.00 0.00 58 1001.7
20260505021003 74 206 2.0 6.0 0.00 0.00 0.00 57 1001.6
20260505020503 74 207 2.0 6.0 0.00 0.00 0.00 56 1001.5
20260505020003 74 211 2.0 5.0 0.00 0.00 0.00 56 1001.4
20260505015503 74 211 3.0 8.0 0.00 0.00 0.00 55 1001.3
20260505015003 75 207 3.0 8.0 0.00 0.00 0.00 55 1001.2
20260505014503 75 210 3.0 8.0 0.00 0.00 0.00 54 1001.1
20260505014003 75 228 4.0 9.0 0.00 0.00 0.00 53 1001.1
20260505013503 75 227 4.0 9.0 0.00 0.00 0.00 53 1001.0
20260505013003 76 214 4.0 8.0 0.00 0.00 0.00 53 1000.9
20260505012503 76 214 3.0 8.0 0.00 0.00 0.00 52 1000.8
20260505012003 76 224 3.0 8.0 0.00 0.00 0.00 52 1000.8
20260505011503 76 229 4.0 10.0 0.00 0.00 0.00 51 1000.8
20260505011003 76 236 4.0 10.0 0.00 0.00 0.00 51 1000.8
20260505010503 77 236 5.0 11.0 0.00 0.00 0.00 50 1000.8
20260505010003 77 231 5.0 11.0 0.00 0.00 0.00 50 1000.7
20260505005524 77 232 5.0 11.0 0.00 0.00 0.00 51 1000.7
20260505005024 77 232 5.0 11.0 0.00 0.00 0.00 50 1000.6
20260505004503 77 232 6.0 13.0 0.00 0.00 0.00 50 1000.7
20260505004003 78 234 5.0 13.0 0.00 0.00 0.00 51 1000.7
20260505003503 78 223 4.0 13.0 0.00 0.00 0.00 50 1000.5
20260505003003 78 219 4.0 10.0 0.00 0.00 0.00 50 1000.5
20260505002503 78 224 5.0 10.0 0.00 0.00 0.00 49 1000.5
20260505002003 79 232 5.0 11.0 0.00 0.00 0.00 49 1000.3
20260505001503 79 231 5.0 11.0 0.00 0.00 0.00 49 1000.4
20260505001003 79 228 6.0 14.0 0.00 0.00 0.00 49 1000.4
20260505000503 79 233 6.0 14.0 0.00 0.00 0.00 49 1000.5
20260505000003 79 231 5.0 12.0 0.00 0.00 0.00 49 1000.4
20260504235503 79 237 6.0 14.0 0.00 0.00 0.00 49 1000.5
20260504235003 79 247 5.0 14.0 0.00 0.00 0.00 49 1000.5
20260504234503 80 243 5.0 14.0 0.00 0.00 0.00 50 1000.5
20260504234003 80 235 6.0 14.0 0.00 0.00 0.00 49 1000.5
20260504233503 80 232 6.0 12.0 0.00 0.00 0.00 49 1000.6
20260504233003 80 229 5.0 15.0 0.00 0.00 0.00 49 1000.6
20260504232503 80 224 6.0 15.0 0.00 0.00 0.00 49 1000.6
20260504232003 80 224 6.0 14.0 0.00 0.00 0.00 49 1000.7
20260504231503 80 232 6.0 14.0 0.00 0.00 0.00 49 1000.7
20260504231003 80 235 6.0 14.0 0.00 0.00 0.00 49 1000.7
20260504230503 80 231 7.0 15.0 0.00 0.00 0.00 49 1000.7
20260504230024 80 223 7.0 15.0 0.00 0.00 0.00 48 1000.8
20260504225503 80 228 7.0 14.0 0.00 0.00 0.00 49 1000.8
20260504225003 80 232 7.0 14.0 0.00 0.00 0.00 47 1000.9
20260504224503 80 227 5.0 13.0 0.00 0.00 0.00 48 1000.9
20260504224003 80 238 6.0 17.0 0.00 0.00 0.00 49 1001.0
20260504223503 80 233 6.0 17.0 0.00 0.00 0.00 49 1001.0
20260504223003 80 228 6.0 17.0 0.00 0.00 0.00 48 1001.0
20260504222503 80 227 6.0 17.0 0.00 0.00 0.00 48 1001.0
20260504222003 80 218 6.0 16.0 0.00 0.00 0.00 50 1001.0
20260504221503 80 213 6.0 14.0 0.00 0.00 0.00 50 1001.0
20260504221003 80 220 6.0 14.0 0.00 0.00 0.00 51 1001.0
20260504220524 80 223 7.0 14.0 0.00 0.00 0.00 50 1001.0
20260504220003 80 217 7.0 15.0 0.00 0.00 0.00 49 1001.0
20260504215503 81 214 7.0 17.0 0.00 0.00 0.00 50 1001.1
20260504215003 80 214 7.0 17.0 0.00 0.00 0.00 50 1001.1
20260504214503 80 216 7.0 14.0 0.00 0.00 0.00 50 1001.1
20260504214003 81 211 7.0 14.0 0.00 0.00 0.00 49 1001.2
20260504213503 81 202 6.0 14.0 0.00 0.00 0.00 50 1001.2
20260504213003 81 215 6.0 14.0 0.00 0.00 0.00 50 1001.2
20260504212524 81 237 7.0 17.0 0.00 0.00 0.00 50 1001.1
20260504212003 81 236 8.0 17.0 0.00 0.00 0.00 49 1001.2
20260504211524 80 228 10.0 21.0 0.00 0.00 0.00 49 1001.2
20260504211003 81 228 11.0 24.0 0.00 0.00 0.00 48 1001.2
20260504210503 81 228 11.0 24.0 0.00 0.00 0.00 48 1001.2
20260504210003 81 227 10.0 21.0 0.00 0.00 0.00 48 1001.2
20260504205503 81 220 9.0 19.0 0.00 0.00 0.00 50 1001.4
20260504205003 80 208 8.0 18.0 0.00 0.00 0.00 53 1001.3
20260504204503 80 209 7.0 17.0 0.00 0.00 0.00 52 1001.3
20260504204003 80 207 7.0 16.0 0.00 0.00 0.00 52 1001.4
20260504203503 80 214 7.0 16.0 0.00 0.00 0.00 52 1001.4
20260504203003 80 225 6.0 15.0 0.00 0.00 0.00 53 1001.4
20260504202524 80 219 7.0 17.0 0.00 0.00 0.00 55 1001.5
20260504202003 79 212 7.0 17.0 0.00 0.00 0.00 55 1001.6
20260504201524 78 218 7.0 15.0 0.00 0.00 0.00 56 1001.9
20260504201003 78 228 7.0 15.0 0.00 0.00 0.00 56 1001.9
20260504200503 78 220 7.0 15.0 0.00 0.00 0.00 56 1001.9
20260504200003 78 213 5.0 12.0 0.00 0.00 0.00 57 1002.1
20260504195503 77 219 5.0 12.0 0.00 0.00 0.00 60 1002.3
20260504195003 77 213 4.0 12.0 0.00 0.00 0.00 60 1002.4
20260504194524 76 219 4.0 10.0 0.00 0.00 0.00 60 1002.4
20260504194003 75 229 4.0 10.0 0.00 0.00 0.00 62 1002.5
20260504193503 74 213 4.0 8.0 0.00 0.00 0.00 63 1002.5
20260504193003 74 208 5.0 11.0 0.00 0.00 0.00 64 1002.5
20260504192503 73 199 5.0 11.0 0.00 0.00 0.00 64 1002.7
20260504192003 73 196 6.0 11.0 0.00 0.00 0.00 64 1002.8
20260504191503 72 204 6.0 11.0 0.00 0.00 0.00 65 1002.9
20260504191003 72 209 6.0 19.0 0.00 0.00 0.00 67 1003.0
20260504190503 70 207 7.0 19.0 0.00 0.00 0.00 69 1003.0
20260504190003 69 201 7.0 13.0 0.00 0.00 0.00 70 1002.8
20260504185503 68 186 9.0 20.0 0.00 0.00 0.00 70 1002.5
20260504185003 67 177 10.0 20.0 0.00 0.00 0.00 69 1002.2
20260504184503 67 173 12.0 28.0 0.00 0.00 0.00 68 1001.9
20260504184003 67 172 13.0 28.0 0.00 0.00 0.00 68 1001.5
20260504183503 67 173 10.0 24.0 0.00 0.00 0.00 67 1001.7
20260504183003 67 178 10.0 17.0 0.00 0.00 0.00 66 1002.5
20260504182503 68 181 11.0 23.0 0.00 0.00 0.00 65 1003.1
20260504182003 68 181 11.0 23.0 0.00 0.00 0.00 64 1002.8
20260504181503 68 188 8.0 14.0 0.00 0.00 0.00 63 1003.1
20260504181003 69 193 7.0 14.0 0.00 0.00 0.00 62 1003.7
20260504180503 69 189 6.0 14.0 0.00 0.00 0.00 62 1003.9
20260504180024 69 178 5.0 10.0 0.00 0.00 0.00 62 1003.6
20260504175503 69 179 6.0 14.0 0.00 0.00 0.00 61 1003.3
20260504175024 70 183 6.0 14.0 0.00 0.00 0.00 60 1003.5
20260504174503 70 189 5.0 9.0 0.00 0.00 0.00 61 1003.7
20260504174024 70 197 5.0 9.0 0.00 0.00 0.00 62 1003.8
20260504173503 70 197 6.0 12.0 0.00 0.00 0.00 62 1003.8
20260504173003 70 196 6.0 12.0 0.00 0.00 0.00 62 1003.9
20260504172503 70 204 5.0 14.0 0.00 0.00 0.00 63 1003.8
20260504172003 70 206 4.0 14.0 0.00 0.00 0.00 63 1004.1
20260504171503 69 197 6.0 15.0 0.00 0.00 0.00 63 1004.4
20260504171003 69 198 7.0 17.0 0.00 0.00 0.00 63 1004.3
20260504170503 69 204 7.0 17.0 0.00 0.00 0.00 64 1004.3
20260504151003 64 186 6.0 11.0 0.00 0.00 0.00 68 1004.9
20260504150503 64 197 6.0 11.0 0.00 0.00 0.00 68 1004.8
20260504141003 66 203 4.0 7.0 0.00 0.00 0.00 64 1005.7
20260504140524 67 196 4.0 10.0 0.00 0.00 0.00 64 1005.7
20260504130503 65 193 5.0 9.0 0.00 0.00 0.00 67 1006.4
20260504110503 59 231 2.0 4.0 0.00 0.00 0.00 74 1006.5
20260504100503 62 209 1.0 5.0 0.00 0.00 0.00 67 1006.8
20260504082003 57 276 1.0 3.0 0.00 0.00 0.00 78 1006.7
20260504081503 57 277 1.0 3.0 0.00 0.00 0.00 77 1006.7
20260504081003 58 277 1.0 3.0 0.00 0.00 0.00 77 1006.8
20260504080503 58 0 0.0 2.0 0.00 0.00 0.00 76 1006.9